Regional Weather Roundup
Issued by NWS

Home | Current Version | Previous Version | Graphics & Text | Print | Product List | Glossary On
Versions: 1 2 3 4 5 6 7 8 9 10 11 12 13 14 15 16 17 18 19 20 21 22 23 24 25 26 27 28 29 30 31 32 33 34 35 36 37 38 39 40 41 42 43 44 45 46 47 48 49 50
000
ASUS43 KOAX 301902
RWRNE

WEATHER ROUNDUP FOR NEBRASKA
NATIONAL WEATHER SERVICE OMAHA NE
200 PM CDT THU OCT 30 2014

NOTES: SATELLITE DATA IS BEING USED TO AUGMENT CLOUD COVER ABOVE
       12000 FEET.
       "FAIR" INDICATES FEW OR NO CLOUDS BELOW 12,000 FEET WITH NO
       SIGNIFICANT WEATHER AND/OR OBSTRUCTIONS TO VISIBILITY.

  * THESE STATIONS DO NOT REPORT WEATHER SUCH AS RAIN...SNOW OR FOG.

NEZ001>004-019>022-054>056-302000-
NEBRASKA PANHANDLE

CITY           SKY/WX    TMP DP  RH WIND       PRES   REMARKS
SCOTTSBLUFF    SUNNY     61  33  35 W10       30.32F
ALLIANCE       SUNNY     60  32  34 N17G25    30.30F
CHADRON        SUNNY     60  33  36 NW5       30.30F
KIMBALL        SUNNY     58  28  32 NW7       30.33F
SIDNEY         SUNNY     60  31  33 N17       30.33F
$$

NEZ057>060-069>072-079>082-302000-
SOUTHWEST NEBRASKA

CITY           SKY/WX    TMP DP  RH WIND       PRES   REMARKS
NORTH PLATTE   SUNNY     64  32  30 NW20G29   30.25F
IMPERIAL       SUNNY     63  31  30 NW14G22   30.28F
LEXINGTON      SUNNY     64  31  29 N21G30    30.22F
MCCOOK         SUNNY     67  30  25 N18G29    30.25F
OGALLALA       SUNNY     64  32  30 NW16G22   30.28F
$$

NEZ005>010-023>029-035>040-094-302000-
NORTH CENTRAL NEBRASKA

CITY           SKY/WX    TMP DP  RH WIND       PRES   REMARKS
VALENTINE      SUNNY     55  34  45 N17G26    30.28R
AINSWORTH      SUNNY     53  34  48 NW23      30.25S
BROKEN BOW     SUNNY     63  34  33 NW23G31   30.21F
O`NEILL        SUNNY     56  38  52 NW22G29   30.21S
ORD            SUNNY     60  34  37 NW21G28   30.19S
THEDFORD       SUNNY     61  34  36 N23G30    30.26S
$$

NEZ041-046>049-061>064-073>077-083>087-302000-
SOUTH CENTRAL NEBRASKA

CITY           SKY/WX    TMP DP  RH WIND       PRES   REMARKS
GRAND ISLAND   SUNNY     63  36  36 N22G29    30.17F
AURORA         SUNNY     62  31  31 N21G33    30.16S
HASTINGS       SUNNY     63  33  32 NW23      30.17F
HEBRON         SUNNY     66  31  27 NW17G30   30.12F
HOLDREGE       SUNNY     63  30  28 N21G32    30.20S
KEARNEY *      SUNNY     63  32  31 NW23G32   30.20F
YORK           SUNNY     63  37  39 N16G30    30.14S
$$

NEZ011>018-030>034-042>045-302000-
NORTHEAST NEBRASKA

CITY           SKY/WX    TMP DP  RH WIND       PRES   REMARKS
NORFOLK        MOSUNNY   57  39  51 N21G32    30.14S
ALBION         SUNNY     58  38  46 NW21G30   30.17S
BLAIR          MOSUNNY   62  42  48 NW18G26   30.07S
COLUMBUS *       N/A    N/A N/A N/A MISG        N/A
FREMONT        SUNNY     61  41  47 NW16G29   30.11S
TEKAMAH        SUNNY     62  41  46 N26G32    30.09R
WAYNE          MOSUNNY   56  40  54 NW20G29   30.14R
$$

NEZ050>053-065>068-078-088>093-302000-
SOUTHEAST NEBRASKA

CITY           SKY/WX    TMP DP  RH WIND       PRES   REMARKS
LINCOLN        SUNNY     64  38  38 NW23G32   30.11F
OMAHA EPPLEY   MOSUNNY   63  42  46 NW22G29   30.07S
BEATRICE       SUNNY     64  40  41 N23G29    30.10S
FALLS CITY     SUNNY     66  40  38 NW17G26   30.04F
NEBRASKA CITY  SUNNY     62  35  36 N17G26    30.07S
PLATTSMOUTH    SUNNY     62  39  42 NW18G26   30.07S
$$

NEZ044-045-051>053-067-302000-
OMAHA AREA

CITY           SKY/WX    TMP DP  RH WIND       PRES   REMARKS
OMAHA EPPLEY   MOSUNNY   63  42  46 NW22G29   30.07S
BLAIR          MOSUNNY   62  42  48 NW18G26   30.07S
FREMONT        SUNNY     61  41  47 NW16G29   30.11S
MILLARD        SUNNY     62  43  49 NW17G25   30.08S
OFFUTT AFB     MOSUNNY   63  43  48 NW20G28   30.06S
PLATTSMOUTH    SUNNY     62  39  42 NW18G26   30.07S
WAHOO          FAIR      63  36  37 N17G28    30.10S
$$



USA.gov is the U.S. government's official web portal to all federal, state and local government web resources and services.